Location: Los Angeles County Sheriffs Department Heliport
(34.0042°N, 117.9378°W)
Time: 01:13:49
(UTC+00:00)

Daily predictions for brighter satellites

Satellite Brightness Start Highest point End
(mag) Time Altitude Azimuth Time Altitude Azimuth Time Altitude Azimuth
Cosmos 1328 Rocket 4.3 03:14:58 10° SSE 03:18:48 32° E 03:22:39 10° NNE
Cosmos 1814 Rocket 4.1 03:17:41 10° N 03:22:46 61° ENE 03:27:51 10° SSE
MetOp-A 4.0 03:22:31 10° SE 03:26:18 38° ENE 03:29:54 10° N
Cosmos 841 Rocket 4.1 03:23:22 10° NNW 03:28:24 57° WSW 03:33:28 10° S
Cosmos 1697 Rocket 2.7 03:24:23 10° S 03:29:57 62° ESE 03:35:32 10° NNE
CZ-4B R/B 2.8 03:29:03 10° NE 03:31:13 17° E 03:33:21 10° SE
Cosmos 2098 Rocket 3.3 03:30:06 10° NNW 03:32:56 42° W 03:35:39 10° SSW
USA 186 0.9 03:31:37 10° SSE 03:34:03 84° ENE 03:36:26 10° N
Gbstr 26 Del rocket 4.2 03:27:31 10° NW 03:35:03 88° SW 03:41:08 11° SE
deb Chang Zheng 4 3.9 03:31:45 10° S 03:35:49 62° WSW 03:39:54 10° NNW
Cosmos 2360 4.2 03:31:12 10° S 03:36:48 68° ESE 03:42:27 10° NNE
CSL-04 Debris 4.2 03:31:38 10° SSE 03:37:03 89° E 03:42:29 10° NNW
OBJECT-B 1.5 03:34:36 10° S 03:37:24 47° W 03:40:13 10° NNW
Cosmos 1151 Rocket 3.1 03:33:46 10° S 03:38:03 83° W 03:42:19 10° N
Cosmos 1340 3.6 03:40:59 10° SSE 03:44:10 27° E 03:47:23 10° NNE
COBE Rocket 4.1 03:40:10 10° SSE 03:45:12 59° ENE 03:50:06 10° N
CZ-4 R/B 3.7 03:42:29 10° SSW 03:45:43 23° W 03:49:00 10° NW
Cosmos 2297 Rocket 2.3 03:40:07 10° NNW 03:45:44 67° ENE 03:51:08 11° SSE
ATLAS 2AS CENTAUR R/B 3.3 03:39:23 10° S 03:46:36 43° ESE 03:53:44 10° NE
Resurs 1-3 3.7 03:46:25 10° SSE 03:50:43 61° ENE 03:55:03 10° N
Cosmos 1503 Rocket 4.4 03:46:14 10° S 03:51:06 41° E 03:56:03 10° NNE
SJ-6B 2.9 03:47:43 10° S 03:51:32 73° WSW 03:55:18 10° NNW
NOSS 3-4 (A) 4.2 03:46:15 10° SW 03:51:43 52° NW 03:57:31 10° NNE
NOSS 3-4 (C) 4.2 03:46:16 10° SW 03:51:47 52° NW 03:57:36 10° NNE
Cosmos 1666 Rocket 3.5 03:47:35 10° N 03:52:00 76° E 03:56:26 10° S
H-2A R/B 2.8 03:48:59 10° S 03:53:22 70° WSW 03:57:39 10° NNW
SJ 16-02 2.5 03:52:33 15° SE 03:55:00 23° E 03:58:28 10° NE
Cosmos 1315 Rocket 2.7 03:51:49 10° N 03:55:52 81° E 03:59:46 11° S
Cosmos 1633 Rocket 3.0 03:55:32 10° N 03:59:53 75° E 04:03:56 12° S
SL-16 R/B 4.1 04:00:33 10° E 04:00:33 10° E 04:01:11 10° E
ATLAS 5 CENTAUR R/B 3.5 03:47:48 10° W 04:01:41 27° SSW 04:06:10 13° SSE
Cosmos 1743 3.8 04:00:37 10° NNE 04:03:50 27° ENE 04:05:10 21° ESE
SPOT 1/Viking Rocket 4.2 04:02:44 18° SE 04:05:59 37° ENE 04:10:42 10° N
Cosmos 1470 Rocket 3.6 04:07:22 10° N 04:11:37 56° E 04:14:11 22° SSE
Meteor 1-27 Rocket 3.7 04:09:50 10° S 04:15:33 84° E 04:21:26 10° N
OAO 3 Rocket 3.2 04:11:00 10° W 04:15:56 86° N 04:19:18 21° E
DASH 4.0 04:01:07 10° W 04:16:23 43° SSW 04:18:48 23° SSE
Resurs 01 Rocket 1.7 04:16:58 24° SSE 04:19:26 60° ENE 04:23:47 10° N
Cosmos 1515 Rocket 3.5 04:15:10 10° S 04:19:30 90° NNE 04:23:55 10° N
Cosmos 2278 3.9 04:14:53 10° S 04:20:15 47° ESE 04:25:40 10° NNE
Cosmos 2208 Rocket 4.4 04:15:04 10° NNW 04:20:26 64° WSW 04:24:53 15° S
NOSS 3-2 (C) 4.4 04:13:05 10° NW 04:21:03 70° WSW 04:28:22 16° SSE
Ariane Rocket 3.3 04:21:00 25° SE 04:23:40 51° ENE 04:28:35 10° N
Terra 4.0 04:23:27 10° ENE 04:24:24 11° ENE 04:25:42 10° NE
IGS 5A 4.4 04:20:40 10° S 04:24:36 44° W 04:28:35 10° NNW
Cosmos 2219 3.1 04:19:51 10° NNW 04:25:30 86° ENE 04:28:56 24° SSE
CENTAUR R/B 4.2 04:17:29 10° NW 04:25:35 44° WSW 04:33:58 10° S
Cosmos 921 Rocket 4.0 04:24:22 10° N 04:28:27 33° ENE 04:29:36 29° E
Landsat 7 4.2 04:26:48 16° S 04:30:33 61° W 04:35:14 10° NNW
Cosmos 2034 Rocket 4.0 04:27:22 18° SSE 04:32:03 61° E 04:38:16 10° NNE
Cosmos 2082 4.1 04:26:38 10° N 04:32:03 47° ENE 04:34:23 30° ESE
CARTOSAT-1 4.3 04:31:39 31° ESE 04:32:40 36° ENE 04:36:37 10° N
Cosmos 2263 Rocket 3.6 04:29:43 10° N 04:34:06 23° ENE 04:35:57 20° E
Meteor 1-11 Rocket 4.0 04:30:33 10° NNW 04:36:31 76° W 04:40:53 19° S
Cosmos 2228 Rocket 3.7 04:36:11 36° ESE 04:36:59 39° E 04:41:14 10° NNE
Okean 1 3.3 04:37:50 45° SSE 04:38:46 59° E 04:42:44 10° NNE
Cosmos 1184 Rocket 3.8 04:39:40 21° SW 04:41:18 41° W 04:44:11 10° N
Cosmos 1536 3.0 04:38:55 10° N 04:42:55 71° W 04:44:32 35° S
RESURS DK-1 2.3 04:40:29 14° SSW 04:43:58 86° WNW 04:48:06 10° NNE
ASTRO E2 3.4 04:42:42 10° W 04:46:10 37° SSW 04:46:10 37° SSW
SL-4 R/B 2.2 04:44:00 10° NW 04:48:29 66° NE 04:49:24 50° E
BREEZE-M DEB (TANK) 4.4 04:45:44 10° WNW 04:49:14 39° SW 04:51:26 28° S
USA 245 4.5 04:50:03 38° SE 04:52:13 62° ENE 04:58:25 10° N
Cosmos 2227 Rocket 3.0 04:47:29 10° NNW 04:52:53 47° WSW 04:56:08 23° SSW
NOSS 2-1 (C) 4.5 04:55:02 25° NE 04:55:02 25° NE 04:56:28 10° NE
Cosmos 1980 Rocket 3.1 04:49:44 10° SW 04:55:08 48° WNW 05:00:36 10° N
Cosmos 1777 Rocket 3.9 04:53:11 23° SSW 04:56:30 87° ESE 05:01:44 10° NNE
Spot 2 Rocket 4.0 04:56:35 38° E 04:57:22 40° ENE 05:02:03 10° N
SPOT 3 Rocket 3.4 04:59:23 49° SE 05:00:46 74° ENE 05:05:55 10° N
ARIANE 5 R/B 4.3 05:01:18 20° ENE 05:01:18 20° ENE 05:04:21 10° NNE
CZ-4B R/B 4.2 05:00:43 10° NNW 05:02:38 15° WNW 05:04:33 10° WSW
Cosmos 1809 Rocket 4.4 04:57:05 10° N 05:03:15 86° E 05:05:42 39° S
Cosmos 389 Rocket 3.3 05:00:14 10° NNW 05:03:35 43° W 05:04:00 40° WSW
NOSS 2-1 (D) 4.3 05:05:16 29° NNE 05:05:16 29° NNE 05:06:56 10° NNE
Cosmos 2322 Rocket 3.2 05:04:59 29° E 05:04:59 29° E 05:08:45 10° NE
Cosmos 773 Rocket 4.1 05:00:03 10° N 05:05:10 56° ENE 05:05:56 51° ESE
Meteor 2-4 Rocket 3.7 05:10:31 52° SE 05:11:39 63° E 05:17:17 10° NNE
Cosmos 1975 4.0 05:09:11 10° NNE 05:11:59 31° NE 05:11:59 31° NE
GENESIS II 4.4 05:14:02 65° WNW 05:14:06 65° WNW 05:17:57 10° NNE
USA 215 4.4 05:09:41 10° ENE 05:12:52 25° E 05:12:52 25° E
Helios 1A Rocket 3.0 05:19:41 68° N 05:19:41 68° N 05:23:14 10° N
Cosmos 158 Rocket 4.3 05:23:20 10° N 05:28:23 52° ENE 05:28:23 52° ENE
CZ-3 Stage 3 3.4 05:19:26 10° W 05:28:02 48° SW 05:28:02 48° SW
USA 81 3.9 05:32:10 75° E 05:32:12 75° E 05:37:28 10° N
ERS-1 Rocket 2.8 05:32:27 78° E 05:32:29 78° ENE 05:37:31 10° N
SJ 16-02 3.5 05:29:55 10° WSW 05:33:25 23° WNW 05:36:56 10° NNW
Cosmos 1733 Rocket 4.3 05:30:10 10° N 05:33:09 33° NE 05:33:09 33° NE
Cosmos 1092 Rocket 3.8 05:28:12 10° N 05:34:22 87° E 05:35:23 65° SSE
Cosmos 1634 Rocket 3.9 05:33:08 55° S 05:34:39 88° W 05:40:52 10° N
Cosmos 2227 4.5 05:31:50 10° N 05:37:28 53° ENE 05:37:41 52° ENE
ATLAS 2AS CENTAUR R/B 4.2 05:30:20 10° WSW 05:37:35 40° NW 05:44:41 10° NNE
CZ-2C R/B 4.0 05:33:49 10° N 05:38:33 64° WNW 05:38:58 61° WSW
Cosmos 2142 Rocket 4.5 05:39:20 63° ESE 05:39:46 65° E 05:46:06 10° NNE
Meteor 2-15 Rocket 4.4 05:40:16 64° E 05:40:22 64° E 05:46:22 10° NNE
Cosmos 1862 Rocket 4.5 05:43:04 43° NNE 05:43:04 43° NNE 05:46:10 10° NNE
SL-16 R/B 2.2 05:42:19 61° SW 05:43:18 78° WNW 05:49:00 10° NNE
Cosmos 2237 4.2 05:46:08 67° ENE 05:46:08 67° ENE 05:51:18 10° NNE
Cosmos 1346 Rocket 4.0 05:47:19 42° NNW 05:47:19 42° NNW 05:50:12 10° N
Cosmos 1538 Rocket 4.4 05:41:27 10° N 05:46:01 51° NE 05:46:01 51° NE
Cosmos 2026 Rocket 4.0 05:52:58 10° NNW 05:59:06 69° W 05:59:49 63° SW
ISS -0.8 05:57:49 10° NNW 05:58:52 17° NNW 05:58:52 17° NNW
Terra 2.4 06:02:20 55° NW 06:02:20 55° NW 06:06:15 10° NNW
SPOT 5 3.8 06:01:47 45° WSW 06:01:51 45° W 06:06:51 10° NNW
Cosmos 2360 Rocket 2.7 06:09:14 51° NE 06:09:14 51° NE 06:13:29 10° NNE
ATLAS 3B R/B 3.1 06:01:06 10° NNW 06:08:26 57° NE 06:09:35 52° E
Meteor 1-13 Rocket 4.5 06:16:36 62° NNE 06:16:36 62° NNE 06:21:11 10° N
Cosmos 2263 Rocket 3.1 06:12:56 10° NW 06:17:39 40° W 06:17:39 40° W
Cosmos 1898 Rocket 4.3 06:32:56 50° N 06:32:56 50° N 06:36:57 10° NNE
Cosmos 2266 Rocket 4.3 06:28:59 10° N 06:34:11 57° NE 06:34:11 57° NE
H-2A ROCKET BODY 4.1 05:58:29 10° W 06:37:04 53° SSW 06:38:16 51° SSW
ATLAS CENTAUR R/B 3.9 06:35:06 10° N 06:37:47 19° NE 06:37:47 19° NE
Cosmos 2322 Rocket 3.7 06:46:43 28° W 06:47:49 30° WNW 06:52:41 10° N
Cosmos 2333 Rocket 3.0 06:55:08 46° NNE 06:55:08 46° NNE 06:59:04 10° NNE
Cosmos 1844 Rocket 3.5 06:52:13 10° NNW 06:56:11 47° N 06:56:11 47° N
USA 215 3.7 06:52:09 10° NE 06:58:34 59° NW 07:00:09 47° W
ADEOS Rocket 4.2 07:00:12 29° NE 07:00:12 29° NE 07:04:25 10° N
Cosmos 2219 Rocket 3.2 07:13:11 42° N 07:13:11 42° N 07:16:51 10° NNE
Cosmos 2237 Rocket 3.8 07:43:57 27° NE 07:43:57 27° NE 07:46:47 10° NE
COSMOS 2428 3.7 07:47:44 42° NNW 07:47:44 42° NNW 07:51:43 10° NNE
ATLAS 3B R/B 4.3 07:52:41 10° NW 07:56:50 24° W 07:56:50 24° W
CZ-4C R/B 3.3 07:51:13 10° NNW 07:58:50 63° ENE 07:59:52 59° E
NOSS 3-1 (C) 4.1 08:03:03 10° NNW 08:10:47 81° W 08:10:47 81° W
ATLAS CENTAUR R/B 4.3 08:13:11 10° NW 08:13:47 13° NW 08:13:47 13° NW
Cosmos 2278 Rocket 3.2 08:13:30 10° N 08:17:53 41° NE 08:17:53 41° NE
Lacrosse 5 3.8 08:22:52 24° NE 08:22:52 24° NE 08:24:57 10° NE
SL-16 R/B 3.7 08:31:39 28° ENE 08:31:39 28° ENE 08:35:03 10° NE
SL-16 R/B 4.4 08:46:14 17° E 08:49:06 24° ENE 08:53:54 10° NNE
Meteor 1-24 Rocket 4.5 08:56:21 47° ENE 08:56:21 47° ENE 09:00:44 10° NNE
COSMOS 2455 3.8 09:01:17 39° E 09:01:17 39° E 09:06:02 10° NE
Cosmos 2315 Rocket 4.3 09:02:46 61° NW 09:02:46 61° NW 09:08:19 10° N
Cosmos 1709 Rocket 4.2 08:57:39 10° N 09:02:43 62° NNW 09:02:43 62° NNW
CZ-2D R/B 2.9 09:03:12 10° NNE 09:07:28 46° ENE 09:07:28 46° ENE
Lacrosse 5 rocket 3.7 09:12:11 21° NNE 09:12:11 21° NNE 09:13:37 10° NNE
USA 267 3.3 09:13:29 62° WNW 09:13:29 62° WNW 09:18:56 10° NW
Meteor 2-5 Rocket 4.0 09:22:35 64° NNW 09:22:35 64° NNW 09:27:30 10° N
Cosmos 2237 Rocket 3.8 09:25:45 23° WNW 09:25:45 23° WNW 09:30:05 10° N
USA 229 DEB 4.1 09:20:44 10° NW 09:27:29 56° W 09:27:29 56° W
USA 229 4.1 09:20:50 10° NW 09:27:37 56° W 09:27:37 56° W
Resurs 1-4 Rocket 2.3 09:27:47 10° NNE 09:32:24 69° N 09:32:24 69° N
Nadezhda 1 Rocket 4.2 09:38:22 55° SE 09:39:23 63° E 09:45:36 10° NNE
NOSS 3-3 (A) 4.3 09:39:55 46° ESE 09:39:55 46° ESE 09:45:35 10° NE
NOSS 3-3 (C) 4.3 09:40:00 45° ESE 09:40:00 45° ESE 09:45:40 10° NE
IDEFIX/ARIANE 42P 3.1 09:39:39 10° NNE 09:44:46 49° E 09:45:05 48° ESE
Cosmos 1943 Rocket 2.4 09:39:52 10° NNW 09:45:31 67° ENE 09:46:34 55° ESE
ADEOS II 2.2 09:41:02 10° NNE 09:46:14 63° ESE 09:46:18 63° ESE
CZ-4C R/B 4.2 09:40:35 10° NW 09:44:59 26° W 09:44:59 26° W
MOS 1 Rocket 3.8 09:49:39 49° ENE 09:49:39 49° ENE 09:53:35 10° N
Cosmos 2297 4.1 09:47:44 10° NNW 09:53:25 60° ENE 09:55:48 34° SE
Cosmos 2278 Rocket 4.3 09:58:39 10° NW 09:59:42 14° WNW 09:59:42 14° WNW
Lacrosse 5 3.7 10:02:02 20° WNW 10:03:14 21° NW 10:07:06 10° NNE
Cosmos 1455 3.8 10:00:29 10° N 10:02:19 28° NNW 10:02:19 28° NNW
NPP 4.0 10:03:47 10° N 10:08:56 48° WNW 10:09:05 48° WNW
Cosmos 1271 Rocket 3.2 10:09:51 10° N 10:13:07 58° NNE 10:13:07 58° NNE
SL-16 R/B 3.4 10:13:31 27° WNW 10:14:04 28° WNW 10:18:53 10° N
Cosmos 2369 Rocket 3.3 10:10:39 10° N 10:15:58 43° ENE 10:21:14 10° SE
Cosmos 2154 Rocket 3.9 10:13:07 10° N 10:19:26 78° W 10:21:27 46° S
AQUA 4.3 10:14:56 10° N 10:19:20 45° WNW 10:19:20 45° WNW
Meteor 1-21 Rocket 4.2 10:17:56 48° S 10:19:31 76° E 10:25:05 10° NNE
Cosmos 2228 3.3 10:17:31 10° N 10:21:50 63° E 10:22:40 51° SE
SL-16 R/B 2.8 10:31:19 44° SW 10:32:18 47° W 10:38:17 10° NNW
Cosmos 1603 3.6 10:35:48 47° SSW 10:37:31 83° WNW 10:43:12 10° NNE
Cosmos 1371 Rocket 4.4 10:35:37 32° SSE 10:37:46 56° ESE 10:42:49 10° NNE
GPS 2-04 Rocket1 2.7 10:39:11 58° E 10:39:11 58° E 10:42:07 10° E
Cosmos 1328 3.6 10:41:59 68° SSW 10:42:27 87° W 10:46:27 10° N
Cosmos 1140 Rocket 4.4 10:40:56 10° N 10:46:01 49° ENE 10:51:03 10° SE
COSMOS 2455 4.1 10:44:25 23° W 10:46:26 28° NW 10:51:32 10° N
CZ-2D R/B 3.8 10:44:38 10° NNW 10:47:56 17° WNW 10:48:47 16° WNW
SeaSat 1 4.5 10:44:57 10° ENE 10:48:38 21° ESE 10:52:17 10° SSE
DNEPR-1 R/B 3.9 10:50:23 41° W 10:51:10 46° WNW 10:55:26 10° NNE
Helios 1B rocket 2.7 10:47:46 10° NNE 10:51:48 63° ESE 10:53:30 32° S
MOS 1-B Rocket 4.5 10:48:11 10° SSE 10:53:39 55° ENE 10:59:11 10° N
Cosmos 1606 Rocket 3.4 10:54:57 10° N 10:59:20 72° W 11:01:19 31° S
Cosmos 1241 Rocket 4.4 10:56:54 30° SSW 11:00:09 88° WNW 11:06:23 10° NNE
OAO 2 Rocket 3.2 11:00:43 31° WSW 11:03:05 88° SSE 11:08:01 10° E
MSX 4.5 10:58:41 10° N 11:04:00 40° WNW 11:06:27 27° WSW
Cosmos 2218 Rocket 4.2 10:58:11 10° N 11:04:27 74° E 11:10:46 10° SSE
Helios 1A 3.8 11:04:40 31° W 11:04:40 31° W 11:08:22 10° NW
Cosmos 1943 3.9 11:05:15 27° WSW 11:07:37 39° WNW 11:12:56 10° N
Lacrosse 4 Rocket 1.9 11:07:58 23° S 11:10:28 55° ESE 11:14:38 10° NE
Cosmos 1624 Rocket 4.0 11:07:53 27° SSW 11:10:50 75° WNW 11:16:10 10° NNE
Cosmos 1408 2.5 11:09:13 31° S 11:10:51 89° E 11:14:29 10° N
SEDSat Delta rocket 4.1 11:08:03 25° WSW 11:12:08 65° S 11:18:47 10° E
Meteor 1-11 4.2 11:09:14 19° SSW 11:13:28 82° W 11:19:17 10° N
Cosmos 2181 Rocket 4.0 11:10:08 21° SSW 11:14:20 64° W 11:20:28 10° N
Cosmos 1892 2.6 11:12:44 24° S 11:14:54 85° E 11:18:41 10° N
Cosmos 1959 Rocket 4.5 11:10:46 10° N 11:17:01 90° ENE 11:23:10 10° S
ARIANE 5 R/B 3.0 11:12:34 10° NNE 11:17:31 56° E 11:22:24 10° S
IRS-1C 4.3 11:13:27 10° NNE 11:18:48 73° ESE 11:23:53 11° S
Meteor 2-1 Rocket 4.4 11:14:24 10° NNW 11:19:56 53° W 11:24:41 13° SSW
Okean 1-7 Rocket 3.8 11:16:36 13° S 11:20:31 71° E 11:24:54 10° N
CBERS-1 4.3 11:16:00 10° N 11:20:57 51° WNW 11:24:04 22° SW
Cosmos 2056 Rocket 3.7 11:19:47 24° SW 11:22:48 56° WNW 11:27:58 10° N
OAO 3 Copernicus 4.4 11:20:38 25° SW 11:23:29 63° SSE 11:28:29 10° E
IDEFIX/ARIANE 42P 4.3 11:20:28 10° NNW 11:23:52 18° WNW 11:25:53 14° W
ADEOS II 4.0 11:22:45 10° NW 11:25:19 14° WNW 11:27:14 12° W
Cosmos 864 Rocket 4.4 11:20:26 10° N 11:26:35 75° W 11:32:39 10° S
Cosmos 1943 Rocket 4.0 11:26:06 10° WNW 11:28:00 13° W 11:28:00 13° W
ALOS 2.2 11:25:10 10° N 11:29:50 81° WNW 11:34:00 13° SSW
FENGYUN 3A 3.7 11:24:57 10° N 11:30:18 70° WNW 11:35:03 13° SSW
ATLAS 3B CENTAUR R/B 3.3 11:31:03 12° S 11:33:10 17° SSE 11:36:42 10° ESE
Cosmos 1602 Rocket 4.4 11:29:50 10° S 11:34:10 52° E 11:38:29 10° NNE
Cosmos 2263 4.4 11:32:35 10° NNW 11:38:03 49° WSW 11:43:32 10° S
Cosmos 1726 Rocket 4.4 11:34:21 10° NNW 11:38:15 31° W 11:41:07 15° SW
Cosmos 2251 Rocket 4.4 11:33:51 10° NW 11:38:16 27° W 11:42:12 12° SSW
Cosmos 1190 Rocket 4.0 11:36:30 10° NNW 11:41:48 78° WSW 11:47:05 10° S
Meteor 1-29 2.7 11:42:47 10° N 11:46:01 70° WNW 11:49:07 11° SSW
CZ-2C R/B 2.7 11:44:46 10° N 11:49:41 52° WNW 11:54:26 10° SSW
PAYLOAD A 4.2 11:48:40 10° N 11:53:14 47° WNW 11:57:55 10° SSW
Spot 4 Rocket 4.4 11:49:35 10° NNE 11:54:42 66° ESE 11:59:46 10° S
